Search the data

BODC Cruise Metadata Report for FRV Scotia (748S) cruise 1202S

Introduction

This report collates information from the BODC cruise inventory and oceanographic databases. It presents

Cruise Inventory Information

Long name FRV Scotia (748S) cruise 1202S
Short name 1202S
Objectives and Narrative 1. To undertake a demersal trawling survey of the North Sea.
2. To obtain temperature and salinity data from surface and sea bed at each trawling location.
3. To carry out benthic sampling along the track of as many trawl stations as time permits.
Ship FRV Scotia
Departure Port Aberdeen, United Kingdom
Departure Date 2002-08-07
Arrival Port Aberdeen, United Kingdom
Arrival Date 2002-08-28
Principal Scientist(s) Kenneth A Coull (Fisheries Research Services Aberdeen Marine Laboratory)
Responsible Organisation British Antarctic Survey
Associated Project(s) Quarter 3 Groundfish Survey
IHB Sea Areas Visited North Sea, North East Atlantic Ocean (limit 40W)
Marsden Squares Visited 181;1/181;3/216;1/216;2/216;3/216;4/217;1/252;1
Work Area Description North Sea and Shetland area
Work Area Bounding Polygon 50N,5W; 65N,5W; 65N,10E; 50N,10E; 50N,5W
Southern Limit 50N
Northern Limit 65N
Western Limit 5W
Eastern Limit 10E

Cruise Inventory Datasets

Physical oceanography  
CTD stations Quantity: number of stations = 85
Description: CTD deployed at each trawling station.  
Surface measurements underway (T,S) Quantity: activity duration in days = 13
Description: Thermosalinograph was run continuously until breakdown.  
Biology and fisheries  
Demersal fish Quantity: number of hauls = 85
Description: 1 haul of 30 minutes' duration carried out at each station to obtain length frequency data for all species encountered and age data for cod, haddock, whiting, saithe, sprat, herring, mackerel and Norway pout.  
Pelagic fish Quantity: number of hauls = 85
Description: 1 haul of 30 minutes' duration carried out at each station to obtain length frequency data for all species encountered and age data for cod, haddock, whiting, saithe, sprat, herring, mackerel and Norway pout.  
Phytoplankton Quantity: number of hauls = 30
Description: 2 Metre Beam Trawl towed for 5 minutes at each station.  
Sediment traps Quantity: number of hauls = 30
Description: 2 Metre Beam Trawl towed for 5 minutes at each station.  
Zooplankton Quantity: number of hauls = 30
Description: 2 Metre Beam Trawl towed for 5 minutes at each station.  

Cruise Inventory Mooring/Buoy Operations

No information on datasets is currently available

Summary of BODC Data Holdings for the Cruise

National Oceanographic Database

Summary

# Series Instrument Description Parameters
83 CTD/STD cast Density of the water column
Electrical conductivity of the water column
Raw fluorometer output
Salinity of the water column
Temperature of the water column
Vertical spatial coordinates

Note: Parameter terms are taken from the BODC Parameter Discovery Vocabulary XML (SKOS)

Full List

BODC Reference Instrument Description Date/Time Location  
618273 CTD/STD cast 2002-08-07 14:36Z 57° 12' N, 0° 52' W Click for more
618285 CTD/STD cast 2002-08-07 17:33Z 57° 32' N, 1° 13' W Click for more
618297 CTD/STD cast 2002-08-08 04:56Z 57° 45' N, 2° 35' W Click for more
618304 CTD/STD cast 2002-08-08 07:31Z 57° 52' N, 3° 1' W Click for more
618316 CTD/STD cast 2002-08-08 10:11Z 58° 9' N, 3° 7' W Click for more
618328 CTD/STD cast 2002-08-08 12:22Z 58° 19' N, 2° 45' W Click for more
618341 CTD/STD cast 2002-08-08 15:47Z 58° 49' N, 2° 24' W Click for more
618353 CTD/STD cast 2002-08-09 05:16Z 58° 45' N, 1° 40' W Click for more
618365 CTD/STD cast 2002-08-09 08:57Z 58° 49' N, 0° 34' W Click for more
618377 CTD/STD cast 2002-08-09 11:09Z 59° 2' N, 0° 47' W Click for more
618389 CTD/STD cast 2002-08-09 14:12Z 59° 13' N, 1° 28' W Click for more
618390 CTD/STD cast 2002-08-09 18:59Z 59° 58' N, 1° 27' W Click for more
618408 CTD/STD cast 2002-08-10 05:45Z 59° 56' N, 2° 18' W Click for more
618421 CTD/STD cast 2002-08-10 09:19Z 60° 1' N, 1° 39' W Click for more
618433 CTD/STD cast 2002-08-10 14:20Z 60° 16' N, 2° 45' W Click for more
618445 CTD/STD cast 2002-08-10 19:05Z 60° 52' N, 1° 58' W Click for more
618457 CTD/STD cast 2002-08-11 05:28Z 60° 43' N, 0° 37' W Click for more
618469 CTD/STD cast 2002-08-11 09:32Z 60° 53' N, 0° 34' E Click for more
618470 CTD/STD cast 2002-08-11 12:20Z 60° 45' N, 1° 7' E Click for more
618482 CTD/STD cast 2002-08-11 15:46Z 60° 33' N, 2° 4' E Click for more
618494 CTD/STD cast 2002-08-11 23:57Z 59° 45' N, 2° 25' E Click for more
618501 CTD/STD cast 2002-08-14 21:37Z 59° 39' N, 3° 12' E Click for more
618513 CTD/STD cast 2002-08-15 06:18Z 59° 43' N, 1° 30' E Click for more
618525 CTD/STD cast 2002-08-15 11:05Z 59° 42' N, 0° 21' E Click for more
618537 CTD/STD cast 2002-08-15 15:06Z 60° 9' N, 0° 27' W Click for more
618549 CTD/STD cast 2002-08-15 18:13Z 59° 43' N, 0° 19' W Click for more
618550 CTD/STD cast 2002-08-16 04:14Z 58° 30' N, 0° 12' E Click for more
618562 CTD/STD cast 2002-08-16 07:50Z 58° 48' N, 0° 48' E Click for more
618574 CTD/STD cast 2002-08-16 10:59Z 58° 46' N, 1° 35' E Click for more
618586 CTD/STD cast 2002-08-16 14:18Z 58° 42' N, 2° 33' E Click for more
618598 CTD/STD cast 2002-08-16 17:25Z 58° 49' N, 3° 20' E Click for more
618605 CTD/STD cast 2002-08-17 04:02Z 57° 37' N, 2° 12' E Click for more
618617 CTD/STD cast 2002-08-17 08:14Z 57° 34' N, 1° 9' E Click for more
618629 CTD/STD cast 2002-08-17 11:24Z 57° 48' N, 0° 24' E Click for more
618630 CTD/STD cast 2002-08-17 13:50Z 58° 1' N, 0° 0' W Click for more
618642 CTD/STD cast 2002-08-17 17:46Z 58° 6' N, 1° 5' W Click for more
618654 CTD/STD cast 2002-08-18 02:00Z 57° 48' N, 0° 29' W Click for more
618666 CTD/STD cast 2002-08-18 09:49Z 57° 15' N, 0° 9' E Click for more
618678 CTD/STD cast 2002-08-18 13:32Z 56° 46' N, 0° 27' E Click for more
618691 CTD/STD cast 2002-08-18 16:42Z 56° 25' N, 0° 14' E Click for more
618709 CTD/STD cast 2002-08-18 19:57Z 56° 47' N, 0° 10' W Click for more
618710 CTD/STD cast 2002-08-19 03:52Z 56° 25' N, 1° 48' W Click for more
618722 CTD/STD cast 2002-08-19 06:35Z 56° 16' N, 2° 3' W Click for more
618734 CTD/STD cast 2002-08-19 09:56Z 56° 40' N, 2° 15' W Click for more
618746 CTD/STD cast 2002-08-20 12:10Z 56° 39' N, 1° 15' W Click for more
618758 CTD/STD cast 2002-08-20 14:59Z 56° 18' N, 1° 0' W Click for more
618771 CTD/STD cast 2002-08-20 17:35Z 56° 0' N, 1° 7' W Click for more
618783 CTD/STD cast 2002-08-20 23:49Z 55° 54' N, 0° 23' W Click for more
618795 CTD/STD cast 2002-08-21 08:30Z 55° 43' N, 0° 9' E Click for more
618802 CTD/STD cast 2002-08-21 13:12Z 55° 26' N, 1° 18' E Click for more
618814 CTD/STD cast 2002-08-21 15:47Z 55° 33' N, 1° 39' E Click for more
618826 CTD/STD cast 2002-08-21 18:27Z 55° 39' N, 2° 10' E Click for more
618838 CTD/STD cast 2002-08-22 02:06Z 56° 5' N, 2° 21' E Click for more
618851 CTD/STD cast 2002-08-22 08:37Z 56° 16' N, 1° 24' E Click for more
618863 CTD/STD cast 2002-08-22 11:08Z 56° 30' N, 1° 10' E Click for more
618875 CTD/STD cast 2002-08-22 15:51Z 56° 44' N, 2° 25' E Click for more
618887 CTD/STD cast 2002-08-22 19:42Z 56° 44' N, 3° 29' E Click for more
618899 CTD/STD cast 2002-08-23 03:42Z 57° 15' N, 5° 10' E Click for more
618906 CTD/STD cast 2002-08-23 07:40Z 57° 9' N, 4° 30' E Click for more
618918 CTD/STD cast 2002-08-23 10:47Z 56° 46' N, 4° 11' E Click for more
618931 CTD/STD cast 2002-08-23 14:07Z 56° 20' N, 3° 37' E Click for more
618943 CTD/STD cast 2002-08-23 17:34Z 56° 13' N, 4° 33' E Click for more
618955 CTD/STD cast 2002-08-24 00:04Z 56° 6' N, 5° 49' E Click for more
618967 CTD/STD cast 2002-08-24 07:32Z 56° 10' N, 6° 28' E Click for more
618979 CTD/STD cast 2002-08-24 10:54Z 56° 9' N, 7° 24' E Click for more
618980 CTD/STD cast 2002-08-24 15:52Z 55° 21' N, 7° 7' E Click for more
618992 CTD/STD cast 2002-08-24 18:06Z 55° 13' N, 6° 40' E Click for more
619006 CTD/STD cast 2002-08-25 02:16Z 54° 21' N, 7° 10' E Click for more
619018 CTD/STD cast 2002-08-25 07:22Z 54° 17' N, 6° 36' E Click for more
619031 CTD/STD cast 2002-08-25 10:56Z 54° 17' N, 5° 42' E Click for more
619043 CTD/STD cast 2002-08-25 15:12Z 54° 15' N, 4° 28' E Click for more
619055 CTD/STD cast 2002-08-25 18:44Z 54° 21' N, 3° 38' E Click for more
619067 CTD/STD cast 2002-08-26 03:24Z 55° 9' N, 5° 10' E Click for more
619079 CTD/STD cast 2002-08-26 08:37Z 55° 12' N, 4° 18' E Click for more
619080 CTD/STD cast 2002-08-26 11:35Z 55° 13' N, 3° 31' E Click for more
619092 CTD/STD cast 2002-08-26 14:45Z 55° 12' N, 2° 37' E Click for more
619111 CTD/STD cast 2002-08-26 17:47Z 54° 48' N, 2° 21' E Click for more
619123 CTD/STD cast 2002-08-27 00:48Z 54° 24' N, 1° 9' E Click for more
619135 CTD/STD cast 2002-08-27 06:54Z 54° 42' N, 1° 1' E Click for more
619147 CTD/STD cast 2002-08-27 09:41Z 54° 47' N, 0° 28' E Click for more
619159 CTD/STD cast 2002-08-27 12:07Z 54° 49' N, 0° 9' W Click for more
619160 CTD/STD cast 2002-08-27 14:07Z 55° 2' N, 0° 14' W Click for more
619172 CTD/STD cast 2002-08-27 17:16Z 55° 24' N, 0° 6' E Click for more

Project Database

No data currently held for this cruise in the BODC Project Database

References

Track Charts

Track Chart

Reports

Cruise Report